Location: Moy Burn
(57.3833°N, 4.0667°W)
Time: 09:45:46
(UTC+00:00)

Cosmos 1238 Rocket - Pass Details

Date: 08 August 2020
Orbit: 375 x 1027 km, 82.9° (Epoch: 18 September)

Event Time Altitude Azimuth Distance (km) Brightness Sun altitude
Exits shadow 22:07:42 12° 192° (SSW) 1,290 4.3 -11.7°
Maximum altitude 22:10:24 87° 282° (WNW) 387 2.0 -11.9°
Drops below altitude 10° 22:13:23 10° 11° (NNE) 1,411 5.6 -12.1°
Sets 22:15:24 0° 12° (NNE) 2,294 6.8 -12.3°
